Zurück zum Katalog

ARIANE 5 R/B

AktivHEO
NORAD 32769·ROCKET BODY·🇫🇷 France

Gestartet Apr 18, 2008 von Guiana Space Centre

Loading…

Nächste Überflüge (nächste 24 Stunden)

TLE

AktuellSource: Space-Track

Epoche: Sep 14, 2026, 13:15 UTC

1 32769U 08018C   26257.55245472  .00001001  00000-0  35516-3 0  9995
2 32769   1.5434  83.9975 6898386 355.7215   0.5868  2.76527436169031

Verfolge ARIANE 5 R/B in Echtzeit mit AllMySat

Download on the App Store